sat.trackr.live / text

‹ back to catalog

TRANSPORTER-13 OBJECT BC

NORAD 63260 · 2025-052BC

PAYLOAD ACTIVE UNKNOWN

§ Identity

Operator
Country
TBD
Launch date
2025-03-15
Launch site
AFWTR
Launch vehicle
Mass (kg)
RCS (m²)

External: N2YO · Heavens-Above · Gunter

§ Orbital elements

Epoch: 2026-05-25T02:55:51.738240Z

Period
96.35 min
Inclination
97.6876°
Eccentricity
0.0003079
Mean motion
14.94597037 rev/d
Perigee alt
581.5 km
Apogee alt
585.8 km
Semi-major
6,961.8 km
B*
1.4151e-4
RAAN
36.9868°
Arg perigee
69.3611°
Mean anomaly
290.7940°
Rev number
6,518

§ Raw data

TRANSPORTER-13 OBJECT BC1 63260U 25052BC  26145.12212660  .00001475  00000+0  14151-3 0  99902 63260  97.6876  36.9868 0003079  69.3611 290.7940 14.94597037 65187

JSON: /api/v1/satellites/63260 · /tle

For live sub-satellite position, see the globe view (requires WebGL).

§ Visibility from observer

Set your observer location to see the next 7 days of passes ≥ 10°. The values pass through the URL so the page stays shareable.

No JS? Fill the form by hand. The geolocation button needs JavaScript.